User: anonymous
Location: Valdosta
(30.8330°N, 83.2790°W)
Time: 12:48:10
(UTC-04:00)
Language:

Oscar 19 - Orbit

View from above orbital plane
View from above orbital plane
View from above satellite
View from above satellite

Ground track
Ground track

The orbit data is extracted from the following two-line orbital elements,

1 20442U 90005G   14107.79850945  .00000305  00000-0  12839-3 0  9394
2 20442 098.4741 047.1211 0011013 332.2743 027.7852 14.32537603266035
Epoch (UTC): 17 April 2014 19:09:51
Eccentricity: 0.0011013
inclination: 98.4741°
perigee height: 775 km
apogee height: 791 km
right ascension of ascending node: 47.1211°
argument of perigee: 332.2743°
revolutions per day: 14.32537603
mean anomaly at epoch: 27.7852°
orbit number at epoch: 26603

The dashed part of the orbit path shows where the satellite is in the earth's shadow,  

DLR